Location: Caltech
(34.1382°N, 118.1253°W)
Time: 19:53:23
(UTC-08:00)

Daily predictions for brighter satellites

Satellite Brightness Start Highest point End
(mag) Time Altitude Azimuth Time Altitude Azimuth Time Altitude Azimuth
Cosmos 1140 Rocket 4.3 17:59:30 10° SSE 18:03:52 29° E 18:08:17 10° NE
SKYMED 2 3.8 18:01:03 10° N 18:05:23 76° WNW 18:09:43 10° SSW
ATLAS CENTAUR R/B 4.1 18:03:28 10° SSE 18:05:32 12° SE 18:07:08 10° ESE
Meteor 1-18 Rocket 4.2 18:01:22 10° N 18:06:55 66° E 18:12:30 10° SSE
Cosmos 1190 Rocket 4.2 18:03:05 10° SSW 18:08:15 78° WNW 18:13:28 10° NNE
SL-8 R/B 4.3 18:06:17 10° WNW 18:11:02 59° SW 18:15:46 10° SE
Meteor 1-28 Rocket 3.4 18:08:18 10° N 18:12:06 79° WNW 18:15:55 10° SSW
BREEZE-M DEB (TANK) 4.3 18:11:08 10° NNE 18:12:09 11° NE 18:13:24 10° ENE
TSX-5 3.3 18:09:29 10° SSW 18:12:42 59° ESE 18:15:50 10° NNE
Meteor 1-20 Rocket 4.4 18:08:25 10° S 18:14:13 89° E 18:20:06 10° N
Abrixas rocket 4.0 18:13:13 10° S 18:15:31 17° SE 18:17:48 10° E
Cosmos 2322 Rocket 2.1 18:12:35 10° NNW 18:18:12 75° ENE 18:23:48 10° SSE
Gbstr 26 Del rocket 2.7 18:15:08 10° SW 18:19:03 60° SE 18:22:44 10° NE
Cosmos 1536 Rocket 3.9 18:17:05 10° N 18:21:23 45° E 18:25:40 10° SSE
Longmarch 3A Rocket 2.7 18:21:00 10° SW 18:22:11 15° S 18:23:32 10° SE
CENTAUR R/B 3.9 18:15:23 10° NW 18:23:16 58° WSW 18:31:25 10° SSE
FENGYUN 3A 4.3 18:21:57 10° SE 18:26:46 34° ENE 18:31:36 10° N
FREGAT/IRIS 2.9 18:25:28 10° SSE 18:28:24 43° ENE 18:31:21 10° N
Cosmos 1536 3.9 18:25:30 10° SE 18:28:41 23° E 18:31:53 10° NE
HJ-1C 4.4 18:25:55 10° SE 18:28:44 25° ENE 18:31:32 10° NNE
OAO 3 Copernicus 4.3 18:23:43 10° W 18:28:49 85° N 18:33:09 14° E
BREEZE-M DEB (TANK) 3.6 18:23:18 10° NW 18:31:01 49° NNE 18:33:21 16° E
Cosmos 2322 4.4 18:27:39 10° N 18:32:44 32° ENE 18:37:45 10° SE
ALOS 2.7 18:30:26 10° SE 18:34:45 39° ENE 18:39:05 10° N
Meteor 1-13 Rocket 4.4 18:30:01 10° N 18:35:22 46° ENE 18:40:47 10° SSE
Cosmos 1954 Rocket 3.9 18:30:17 10° SSW 18:35:27 85° ESE 18:40:41 10° NNE
H-2A R/B 3.9 18:33:29 12° ESE 18:35:56 21° ENE 18:38:47 10° NNE
Okean 1 3.3 18:33:28 10° N 18:37:33 89° W 18:41:36 10° S
Resurs 01 Rocket 2.3 18:35:14 10° SE 18:39:07 31° ENE 18:43:01 10° N
NOSS 8 (E) 4.4 18:35:44 10° SSW 18:39:13 69° ESE 18:42:45 10° NE
GPS 2-04 Rocket1 3.4 18:36:28 10° SW 18:40:33 44° SSE 18:43:11 20° E
DNEPR-1 R/B 3.6 18:37:51 10° NNW 18:42:04 80° WSW 18:46:26 10° SSE
NOAA 12 4.2 18:38:06 10° S 18:43:24 82° WSW 18:48:46 10° NNW
Cosmos 1812 4.3 18:41:52 10° NNW 18:45:28 39° W 18:49:03 10° SSW
COSMOS 2428 3.9 18:42:32 10° N 18:46:51 22° ENE 18:48:18 20° E
Cosmos 1300 Rocket 3.5 18:42:51 10° S 18:47:14 76° E 18:51:40 10° N
Meteor 2-4 Rocket 4.1 18:44:12 10° N 18:49:17 36° ENE 18:54:14 10° SE
METEOR-M 4.4 18:45:38 10° S 18:50:57 71° WSW 18:56:18 10° NNW
ATLAS 2A CENTAUR R/B 2.9 18:49:52 10° SW 18:52:16 25° S 18:56:05 15° ESE
Cosmos 1461 3.2 18:48:43 10° NW 18:52:43 65° WSW 18:56:50 10° SSE
GEOS 3 Rocket 3.7 18:47:42 10° NNE 18:52:58 80° NW 18:58:15 10° SW
NOSS 8 (H) 4.3 18:49:35 10° SSW 18:53:00 68° ESE 18:55:09 21° NE
Cosmos 1633 2.8 18:49:43 10° SSW 18:53:23 71° W 18:57:04 10° N
Tiangong 2 0.9 18:54:42 10° WNW 18:57:46 74° NNE 18:58:29 48° E
Resurs 1-3 3.9 18:54:57 10° SE 18:59:07 44° ENE 19:03:17 10° N
Cosmos 2181 Rocket 3.9 18:56:20 10° N 19:02:37 84° E 19:08:58 10° S
OTV 4 3.1 19:03:24 10° S 19:03:32 10° S 19:03:32 10° S
Cosmos 2219 3.2 18:59:29 10° S 19:05:08 61° ESE 19:10:47 10° NNE
Helios 1A 3.9 19:07:51 29° NE 19:07:51 29° NE 19:10:40 10° N
Meteor 1-11 Rocket 3.9 19:01:19 10° S 19:07:03 79° W 19:12:58 10° N
Cosmos 2360 Rocket 2.1 19:04:00 10° NNW 19:09:40 77° ENE 19:15:19 10° SSE
Cosmos 1238 Rocket 2.6 19:07:51 10° NNW 19:10:46 59° W 19:13:44 10° S
Cosmos 2219 Rocket 3.7 19:07:53 10° NNE 19:10:35 18° NE 19:10:35 18° NE
Cosmos 2074 Rocket 3.9 19:08:53 10° S 19:15:03 68° E 19:21:16 10° NNE
Cosmos 2184 Rocket 3.9 19:10:44 10° S 19:17:00 67° E 19:23:14 10° NNE
Intercosmos 24 4.0 19:13:28 10° S 19:17:17 66° E 19:22:31 10° NNE
Cosmos 1741 Rocket 4.0 19:12:18 10° SSW 19:17:31 86° WNW 19:22:46 10° NNE
Okean 1 Rocket 3.7 19:15:54 10° SSW 19:20:18 58° W 19:24:45 10° N
Helios 1B rocket 2.3 19:25:49 47° NNE 19:26:57 76° ESE 19:31:04 10° S
Cosmos 1570 Rocket 3.8 19:30:46 10° NNW 19:36:00 78° ENE 19:37:06 56° SE
DELTA 2 R/B (1) 3.4 19:34:53 10° WNW 19:40:32 90° SSW 19:41:14 70° ESE
Cosmos 2333 Rocket 3.8 19:37:11 10° N 19:39:38 21° NNE 19:39:38 21° NNE
Okean 1-7 Rocket 4.3 19:42:33 10° NNW 19:46:57 54° W 19:50:11 17° SSW
Cosmos 1025 Rocket 3.4 19:43:38 10° N 19:47:21 60° NW 19:47:21 60° NW
Cosmos 2285 Rocket 4.0 19:42:19 10° N 19:48:32 61° ENE 19:48:32 61° ENE
Hubble Space Telescope 3.1 19:50:09 10° SW 19:51:23 16° SSW 19:51:23 16° SSW
CZ-3 Stage 3 4.3 19:15:47 10° SW 19:54:33 43° S 19:57:30 37° SE
Meteor 2-13 Rocket 4.4 19:54:35 10° S 20:00:37 80° W 20:06:44 10° N
Cosmos 2208 Rocket 4.3 19:56:24 10° NNW 20:01:48 65° WSW 20:02:16 62° SW
Resurs 01 Rocket 4.2 20:12:32 10° SW 20:15:36 19° W 20:18:41 10° NW
USA 229 DEB 4.0 20:18:35 10° NNW 20:24:34 65° NNW 20:24:34 65° NNW
USA 229 4.0 20:18:41 10° NNW 20:24:38 64° NNW 20:24:38 64° NNW
COSMOS 2428 3.7 20:25:55 10° NW 20:30:23 42° WNW 20:30:23 42° WNW
Cosmos 2237 Rocket 4.4 20:32:24 10° NNW 20:33:33 16° N 20:33:33 16° N
Cosmos 2219 Rocket 4.3 20:50:36 10° NNW 20:52:20 20° NW 20:52:20 20° NW
